Iridium Next SV173

operational
NORAD ID: 43925 Int'l Des: 2019-002 Owner: IRIDS Country: US Constellation: Iridium NEXT
LEOCIRCULARPOLAR

About Iridium Next SV173

Description loading...

Live Position

Loading 3D Globe...

Upcoming Passes

Altitude History

Altitude vs Time

uPlot chart will show altitude changes over time

Two-Line Element Set

1 43925U 19002D 25350.95132566 .00000257 00000-0 84702-4 0 9996
2 43925 86.3964 69.7492 0002045 101.9588 258.1838 14.34219428362836
Epoch: Dec 16, 2025 • Age: 13 hours

Current Status

Altitude 790.1 km
Velocity 7.46 km/s
Sub-Earth Point -31.49°S, 7.65°W
Launch Date Jan 11, 2019
Age 6.9 years
Type communications

Technical Details

Classification Payload
Mass 860.00 kg
Dry Mass 700.00 kg
Total Mass 860.00 kg
Length 3.10 m
Diameter 1.50 m
Span 9.40 m
Shape Half Hex Prism+2 pan
Manufacturer NGISGA
Bus Type EliteBus
Phase Status In Orbit
Owner/State IRIDS/US

Large Constellations

Loading constellations...